"2009-08-28 00:00:00",1189729,8.21,81.4,2.497,0.577,20.89,109.8992,24.64,25.57,15.68,0,111.1,13.13,25.47,43.4
"2009-08-28 00:00:30",1189730,9.86,76.34,2.865,0.312,20.87,109.9,24.64,25.58,15.37,0,111.1,13.13,25.48,38.3
"2009-08-28 00:01:00",1189731,10.08,79.27,3.257,0.192,20.9,109.8997,24.64,25.58,15.02,0,111.1,13.13,25.47,41.3
"2009-08-28 00:01:30",1189732,9.63,82.7,1.778,0.246,20.89,109.9,24.64,25.59,14.96,0,111.1,13.13,25.48,44.7
"2009-08-28 00:02:00",1189733,11.38,77.32,2.444,0.479,21.02,109.8997,24.64,25.59,15.11,0,111.1,13.13,25.47,39.3
"2009-08-28 00:02:30",1189734,9.61,78.73,1.731,0.873,21.01,109.8992,24.64,25.58,15.15,0,111.1,13.13,25.47,40.7
"2009-08-28 00:03:00",1189735,8.96,79.41,2.927,0.318,21,109.8944,24.62,25.59,15.21,0,111.1,13.13,25.46,41.4
"2009-08-28 00:03:30",1189736,9.47,74.54,2.315,0.607,20.97,109.8891,24.61,25.59,15.28,0,111.1,13.14,25.45,36.5
"2009-08-28 00:04:00",1189737,10.53,78.36,3.762,0.226,20.91,109.8807,24.59,25.58,15.18,0,111.1,13.14,25.43,40.4
"2009-08-28 00:04:30",1189738,10.71,81.4,2.039,0.404,20.89,109.8775,24.58,25.57,15.21,0,111.1,13.14,25.42,43.4
"2009-08-28 00:05:00",1189739,9.92,81.5,1.643,0.389,20.84,109.8711,24.56,25.57,15.05,0,111.1,13.14,25.40,43.5
"2009-08-28 00:05:30",1189740,11.45,77.56,1.757,0.366,20.92,109.8684,24.56,25.57,15.11,0,111.1,13.14,25.39,39.6
"2009-08-28 00:06:00",1189741,11.09,75.61,2.457,0.192,20.97,109.8678,24.55,25.55,15.19,0,111.1,13.14,25.39,37.6
"2009-08-28 00:06:30",1189742,10.36,78.5,5.683,0.386,20.96,109.8691,24.56,25.55,15.15,0,111.1,13.14,25.40,40.5
"2009-08-28 00:07:00",1189743,10,76.96,2.989,0.416,20.96,109.8688,24.56,25.54,14.96,0,111.1,13.14,25.40,39.0
"2009-08-28 00:07:30",1189744,9.4,82.4,3.148,0.296,20.92,109.8694,24.56,25.54,15.1,0,111.1,13.14,25.40,44.4
"2009-08-28 00:08:00",1189745,10,74.84,1.62,0.332,20.94,109.8671,24.55,25.53,15.29,0,111.1,13.14,25.39,36.8
"2009-08-28 00:08:30",1189746,10.71,74.96,3.456,0.704,20.97,109.8634,24.54,25.52,14.86,0,111.1,13.14,25.38,37.0
"2009-08-28 00:09:00",1189747,11,79.01,2.787,0.355,20.99,109.8554,24.52,25.52,14.42,0,111.1,13.14,25.36,41.0
"2009-08-28 00:09:30",1189748,10.61,76.1,1.912,0.236,20.91,109.8435,24.49,25.51,14.09,0,111.1,13.14,25.33,38.1
"2009-08-28 00:10:00",1189749,10.97,79.31,3.447,1.007,21.02,109.8382,24.48,25.5,14.37,0,111.1,13.14,25.32,41.3
"2009-08-28 00:10:30",1189750,9.6,76.26,2.947,0.703,20.96,109.8391,24.48,25.49,14.65,0,111.1,13.14,25.32,38.3
"2009-08-28 00:11:00",1189751,10.56,75.89,2.555,0.307,20.96,109.8388,24.48,25.48,14.54,0,111.1,13.14,25.32,37.9
"2009-08-28 00:11:30",1189752,10.48,74.6,2.368,0.279,20.94,109.8407,24.49,25.47,14.19,0,111.1,13.14,25.32,36.6
"2009-08-28 00:12:00",1189753,10.33,72.99,2.903,0.341,20.93,109.8404,24.48,25.46,14.31,0,111.1,13.14,25.32,35.0
"2009-08-28 00:12:30",1189754,9.72,76.15,1.887,0.46,20.92,109.8407,24.49,25.46,14.49,0,111.1,13.14,25.32,38.2
"2009-08-28 00:13:00",1189755,10.19,73.06,3.059,0.434,20.99,109.8392,24.48,25.46,15.06,0,111.1,13.14,25.32,35.1
"2009-08-28 00:13:30",1189756,9.57,79.57,2.277,0.372,20.98,109.8359,24.47,25.45,15.22,0,111.1,13.14,25.31,41.6
"2009-08-28 00:14:00",1189757,10.81,73.09,1.644,0.475,20.98,109.8289,24.45,25.45,14.59,0,111.1,13.14,25.29,35.1
"2009-08-28 00:14:30",1189758,9.99,71.05,2.225,0.785,20.87,109.8233,24.44,25.43,14.38,0,111.1,13.14,25.28,33.1
"2009-08-28 00:15:00",1189759,9.6,74.99,3.725,0.556,20.92,109.8185,24.43,25.43,14.61,0,111.1,13.14,25.27,37.0
"2009-08-28 00:15:30",1189760,9.45,74.49,3.903,0.594,20.97,109.8174,24.43,25.43,15.06,0,111.1,13.14,25.26,36.5
"2009-08-28 00:16:00",1189761,10.46,74.78,4.037,0.217,20.92,109.8146,24.42,25.42,14.21,0,111.1,13.14,25.26,36.8
"2009-08-28 00:16:30",1189762,9.4,82.4,3.505,0.526,20.95,109.8132,24.41,25.43,14.69,0,111.1,13.13,25.25,44.4
"2009-08-28 00:17:00",1189763,9.26,74.65,3.63,0.379,20.97,109.8095,24.41,25.42,14.74,0,111.1,13.13,25.24,36.7
"2009-08-28 00:17:30",1189764,10.04,78.38,1.556,0.501,20.97,109.8096,24.41,25.41,14.87,0,111.1,13.13,25.24,40.4
"2009-08-28 00:18:00",1189765,10.53,78.84,1.353,0.236,20.94,109.8087,24.4,25.42,14.03,0,111.1,13.13,25.24,40.8
"2009-08-28 00:18:30",1189766,10.28,81.9,3.505,0.57,20.96,109.8079,24.4,25.41,14.43,0,111.1,13.13,25.24,43.9
"2009-08-28 00:19:00",1189767,10.56,76.27,2.687,0.473,20.99,109.8079,24.4,25.4,14.5,0,111.1,13.13,25.24,38.3
"2009-08-28 00:19:30",1189768,11.02,78.62,0.916,0.131,20.96,109.8079,24.4,25.4,13.83,0,111.1,13.13,25.24,40.6
"2009-08-28 00:20:00",1189769,11.31,79.31,0.952,0.147,20.99,109.8079,24.4,25.4,13.86,0,111.1,13.14,25.24,41.3
"2009-08-28 00:20:30",1189770,11.43,78.39,0.853,0.144,21.02,109.8079,24.4,25.4,13.84,0,111.1,13.14,25.24,40.4
"2009-08-28 00:21:00",1189771,11.33,77.21,1.087,0.271,20.96,109.8079,24.4,25.4,13.86,0,111.1,13.14,25.24,39.2
"2009-08-28 00:21:30",1189772,10.75,77.08,2.023,0.326,20.96,109.8079,24.4,25.39,14.05,0,111.1,13.14,25.24,39.1
"2009-08-28 00:22:00",1189773,10.65,79.21,1.424,0.482,20.97,109.8079,24.4,25.39,14.15,0,111.1,13.14,25.24,41.2
"2009-08-28 00:22:30",1189774,10.35,79.62,2.273,0.669,20.96,109.8079,24.4,25.39,14.08,0,111.1,13.14,25.24,41.6
"2009-08-28 00:23:00",1189775,9.08,79.37,3.145,0.461,20.95,109.8054,24.39,25.36,14.34,0,111.1,13.14,25.23,41.4
"2009-08-28 00:23:30",1189776,9.88,77.98,1.761,0.586,20.99,109.8009,24.38,25.36,14.49,0,111.1,13.14,25.22,40.0
"2009-08-28 00:24:00",1189777,10.96,74.79,2.461,0.341,20.94,109.7941,24.37,25.36,14.16,0,111.1,13.14,25.20,36.8
"2009-08-28 00:24:30",1189778,10.59,80.9,3.257,0.452,20.97,109.7857,24.34,25.37,14.46,0,111.1,13.14,25.18,42.9
"2009-08-28 00:25:00",1189779,9.71,81.6,3.282,0.467,20.91,109.7834,24.34,25.34,14.45,0,111.1,13.14,25.17,43.6
"2009-08-28 00:25:30",1189780,9.5,83.3,3.928,0.564,20.92,109.7809,24.33,25.35,14.77,0,111.1,13.14,25.17,45.3
"2009-08-28 00:26:00",1189781,8.14,78.92,3.316,0.42,20.9,109.7809,24.33,25.34,15.1,0,111.1,13.14,25.17,40.9
"2009-08-28 00:26:30",1189782,9.36,76.24,3.6,0.504,20.96,109.779,24.33,25.35,14.88,0,111.1,13.14,25.16,38.2
"2009-08-28 00:27:00",1189783,8.06,75.57,7.384,0.669,20.86,109.7778,24.32,25.34,14.76,0,111.1,13.14,25.16,37.6
"2009-08-28 00:27:30",1189784,7.724,78.86,2.046,0.342,20.86,109.7792,24.33,25.33,15.33,0,111.1,13.14,25.16,40.9
"2009-08-28 00:28:00",1189785,8.24,75.69,3.406,0.489,20.87,109.7804,24.33,25.33,15.42,0,111.1,13.14,25.17,37.7
"2009-08-28 00:28:30",1189786,8.18,73.02,3.44,0.421,20.83,109.7798,24.33,25.33,14.84,0,111.1,13.14,25.17,35.0
"2009-08-28 00:29:00",1189787,8.77,76.08,3.23,0.619,20.89,109.7804,24.33,25.34,15.14,0,111.1,13.14,25.17,38.1
"2009-08-28 00:29:30",1189788,9.97,78.43,2.105,0.357,20.94,109.7792,24.33,25.34,14.24,0,111.1,13.14,25.16,40.4
"2009-08-28 00:30:00",1189789,9.64,79.69,3.393,0.553,20.93,109.7801,24.33,25.33,14.42,0,111.1,13.14,25.17,41.7
"2009-08-28 00:30:30",1189790,9.55,77.17,1.917,0.56,20.88,109.7761,24.32,25.33,14.52,0,111.1,13.14,25.16,39.2
"2009-08-28 00:31:00",1189791,8.48,76.43,2.799,0.423,20.88,109.7759,24.32,25.33,14.66,0,111.1,13.14,25.16,38.4
"2009-08-28 00:31:30",1189792,10.27,76.75,1.925,0.651,20.99,109.775,24.32,25.32,14.54,0,111.1,13.14,25.15,38.8
"2009-08-28 00:32:00",1189793,10.89,79.28,0.962,0.217,21,109.7745,24.32,25.32,14.17,0,111.1,13.14,25.15,41.3
"2009-08-28 00:32:30",1189794,11.04,77.81,0.602,0.137,21.01,109.7742,24.31,25.32,13.9,0,111.1,13.14,25.15,39.8
"2009-08-28 00:33:00",1189795,10.95,76.48,0.871,0.113,21,109.7742,24.31,25.33,13.85,0,111.1,13.14,25.15,38.5
"2009-08-28 00:33:30",1189796,11.19,76.38,1.952,0.272,21.01,109.7742,24.31,25.32,13.96,0,111.1,13.14,25.15,38.4
"2009-08-28 00:34:00",1189797,10.9,78.84,1.867,0.231,21.01,109.7742,24.31,25.31,14.11,0,111.1,13.14,25.15,40.8
"2009-08-28 00:34:30",1189798,10.94,79.8,0.947,0.166,21.01,109.7742,24.31,25.32,14.22,0,111.1,13.14,25.15,41.8
"2009-08-28 00:35:00",1189799,10.82,79.84,1.387,0.169,21.01,109.7742,24.31,25.3,13.97,0,111.1,13.14,25.15,41.8
"2009-08-28 00:35:30",1189800,10.87,79.15,1.824,0.366,21.01,109.7731,24.31,25.3,13.95,0,111.1,13.14,25.15,41.2
"2009-08-28 00:36:00",1189801,10.59,78.84,2.254,0.233,21.03,109.7688,24.3,25.3,13.93,0,111.1,13.14,25.14,40.8
"2009-08-28 00:36:30",1189802,10.22,78.68,1.236,0.373,21.02,109.7593,24.28,25.29,14.36,0,111.1,13.14,25.11,40.7
"2009-08-28 00:37:00",1189803,10.22,80,2.189,0.232,20.98,109.7534,24.26,25.29,14.3,0,111.1,13.14,25.10,42.0
"2009-08-28 00:37:30",1189804,10.3,81.9,0.984,0.339,21.01,109.7503,24.25,25.29,14.04,0,111.1,13.14,25.09,43.9
"2009-08-28 00:38:00",1189805,10.43,81,0.93,0.135,21.01,109.7467,24.24,25.27,13.82,0,111.1,13.14,25.08,43.0
"2009-08-28 00:38:30",1189806,10.53,81.6,0.629,0.22,21,109.7419,24.23,25.28,13.86,0,111.1,13.14,25.07,43.6
"2009-08-28 00:39:00",1189807,10.7,81.8,1.224,0.219,21.01,109.7408,24.23,25.26,13.9,0,111.1,13.14,25.07,43.8
"2009-08-28 00:39:30",1189808,10.2,79.08,0.624,0.103,21.05,109.7405,24.23,25.26,13.73,0,111.1,13.15,25.06,41.1
"2009-08-28 00:40:00",1189809,10.3,80.5,0.748,0.219,21.06,109.7405,24.23,25.25,13.74,0,111.1,13.15,25.06,42.5
"2009-08-28 00:40:30",1189810,10.7,80.5,1.155,0.27,21.06,109.7405,24.23,25.25,13.73,0,111.1,13.15,25.06,42.5
"2009-08-28 00:41:00",1189811,10.72,81.2,0.978,0.579,20.97,109.7405,24.23,25.25,14.25,0,111.1,13.15,25.06,43.2
"2009-08-28 00:41:30",1189812,10.76,81.6,0.407,0.128,21.04,109.7405,24.23,25.24,14.04,0,111.1,13.15,25.06,43.6
"2009-08-28 00:42:00",1189813,11.04,81.1,0.941,0.359,21.04,109.7405,24.23,25.26,14.14,0,111.1,13.15,25.06,43.1
"2009-08-28 00:42:30",1189814,10.88,80.8,0.902,0.191,21.05,109.7405,24.23,25.24,14.27,0,111.1,13.15,25.06,42.8
"2009-08-28 00:43:00",1189815,10.78,83,0.861,0.112,21.01,109.7405,24.23,25.24,14.05,0,111.1,13.15,25.06,45.0
"2009-08-28 00:43:30",1189816,10.52,83,0.872,0.175,20.99,109.7405,24.23,25.23,13.98,0,111.1,13.15,25.06,45.0
"2009-08-28 00:44:00",1189817,10.27,80.4,1.136,0.158,21.01,109.7411,24.23,25.24,14.12,0,111.1,13.15,25.07,42.4
"2009-08-28 00:44:30",1189818,10.63,80.9,0.631,0.165,21.06,109.7411,24.23,25.21,14.14,0,111.1,13.15,25.07,42.9
"2009-08-28 00:45:00",1189819,10.59,80.7,0.766,0.11,21.03,109.7388,24.22,25.23,14.18,0,111.1,13.15,25.06,42.7
"2009-08-28 00:45:30",1189820,10.64,80,1.257,0.189,21.03,109.7356,24.22,25.2,14.29,0,111.1,13.15,25.05,42.0
"2009-08-28 00:46:00",1189821,10.51,81.9,0.495,0.112,21.02,109.7295,24.2,25.21,14.29,0,111.1,13.15,25.04,43.9
"2009-08-28 00:46:30",1189822,10.55,82.3,0.573,0.123,20.99,109.7233,24.18,25.22,14.36,0,111.1,13.15,25.02,44.3
"2009-08-28 00:47:00",1189823,10.68,82.4,0.887,0.145,21,109.7241,24.19,25.21,14.45,0,111.1,13.15,25.02,44.4
"2009-08-28 00:47:30",1189824,10.48,82.2,0.543,0.113,21,109.722,24.18,25.2,14.4,0,111.1,13.15,25.02,44.2
"2009-08-28 00:48:00",1189825,10.63,81.6,0.315,0.186,21.01,109.724,24.19,25.2,14.48,0,111.1,13.15,25.02,43.6
"2009-08-28 00:48:30",1189826,10.33,83.1,0.738,0.094,20.99,109.7208,24.18,25.19,14.41,0,111.1,13.15,25.01,45.1
"2009-08-28 00:49:00",1189827,10.2,84,0.428,0.179,20.95,109.7191,24.17,25.19,14.53,0,111.1,13.15,25.01,46.0
"2009-08-28 00:49:30",1189828,10.27,84.5,0.581,0.187,20.97,109.724,24.19,25.18,14.46,0,111.1,13.14,25.02,46.5
"2009-08-28 00:50:00",1189829,10.06,83.9,0.859,0.088,20.95,109.7271,24.19,25.17,14.66,0,111.1,13.14,25.03,45.9
"2009-08-28 00:50:30",1189830,9.97,83.5,1.269,0.161,21.01,109.725,24.19,25.18,14.61,0,111.1,13.14,25.02,45.5
"2009-08-28 00:51:00",1189831,10.04,83.6,0.933,0.161,21.01,109.7305,24.2,25.17,14.35,0,111.1,13.14,25.04,45.6
"2009-08-28 00:51:30",1189832,10.25,84.2,1.597,0.224,21,109.7314,24.2,25.15,14.61,0,111.1,13.14,25.04,46.2
"2009-08-28 00:52:00",1189833,10.52,82.7,0.779,0.239,21.05,109.732,24.21,25.17,14.37,0,111.1,13.14,25.04,44.7
"2009-08-28 00:52:30",1189834,10.15,83.1,1.099,0.101,21.05,109.733,24.21,25.16,14.42,0,111.1,13.14,25.04,45.1
"2009-08-28 00:53:00",1189835,9.86,85,1.57,0.277,21,109.7334,24.21,25.16,14.53,0,111.1,13.14,25.05,47.0
"2009-08-28 00:53:30",1189836,9.4,83.1,2.043,0.351,20.98,109.7269,24.19,25.15,14.91,0,111.1,13.14,25.03,45.1
"2009-08-28 00:54:00",1189837,9.89,84,2.1,0.377,21.04,109.7173,24.17,25.14,14.61,0,111.1,13.14,25.00,46.0
"2009-08-28 00:54:30",1189838,9.91,84.8,1.566,0.243,21.03,109.7123,24.16,25.14,14.45,0,111.1,13.14,24.99,46.8
"2009-08-28 00:55:00",1189839,9.87,84.5,1.476,0.477,21.02,109.7092,24.15,25.13,14.32,0,111.1,13.15,24.98,46.5
"2009-08-28 00:55:30",1189840,9.8,84.6,1.851,0.309,20.99,109.7064,24.14,25.12,14.72,0,111.1,13.15,24.98,46.6
"2009-08-28 00:56:00",1189841,10.23,85.6,0.739,0.186,21,109.7014,24.13,25.12,14.37,0,111.1,13.15,24.96,47.6
"2009-08-28 00:56:30",1189842,10.14,85.4,0.5,0.146,20.99,109.7023,24.13,25.12,14.39,0,111.1,13.15,24.97,47.4
"2009-08-28 00:57:00",1189843,10.19,85.3,0.499,0.073,20.99,109.7026,24.13,25.12,14.43,0,111.1,13.15,24.97,47.3
"2009-08-28 00:57:30",1189844,10.2,86.7,0.828,0.186,20.98,109.7017,24.13,25.11,14.47,0,111.1,13.15,24.96,48.7
"2009-08-28 00:58:00",1189845,10.32,87.1,0.956,0.159,20.96,109.7033,24.13,25.1,14.54,0,111.1,13.15,24.97,49.1
"2009-08-28 00:58:30",1189846,10.19,87.2,0.392,0.074,20.97,109.7039,24.13,25.11,14.58,0,111.1,13.15,24.97,49.2
"2009-08-28 00:59:00",1189847,10.21,87.6,0.421,0.121,20.97,109.7042,24.13,25.11,14.66,0,111.1,13.15,24.97,49.6
"2009-08-28 00:59:30",1189848,10.21,88.1,0.934,0.134,20.93,109.7051,24.14,25.09,14.79,0,111.1,13.15,24.97,50.1
"2009-08-28 01:00:00",1189849,10.28,87.9,0.447,0.091,20.98,109.7005,24.13,25.09,14.68,0,111.1,13.15,24.96,49.9
"2009-08-28 01:00:30",1189850,10.43,88.4,0.469,0.073,20.98,109.6997,24.12,25.07,14.79,0,111.1,13.15,24.96,50.4
"2009-08-28 01:01:00",1189851,10.09,88.7,0.188,0.105,20.94,109.6916,24.1,25.08,15.01,0,111.1,13.15,24.94,50.7
"2009-08-28 01:01:30",1189852,10.1,87.8,0.478,0.085,20.97,109.6853,24.09,25.06,15.21,0,111.1,13.15,24.92,49.8
"2009-08-28 01:02:00",1189853,9.96,87.6,0.629,0.088,20.98,109.6844,24.08,25.06,15.33,0,111.1,13.15,24.92,49.6
"2009-08-28 01:02:30",1189854,10.06,87.3,0.341,0.148,20.99,109.6833,24.08,25.06,15.42,0,111,13.15,24.92,49.3
"2009-08-28 01:03:00",1189855,10.04,86.8,0.366,0.08,20.99,109.6777,24.07,25.06,15.31,0,111.1,13.15,24.90,48.8
"2009-08-28 01:03:30",1189856,9.93,87.4,0.383,0.067,21,109.6766,24.06,25.06,15.46,0,111,13.15,24.90,49.4
"2009-08-28 01:04:00",1189857,10.18,88.1,0.533,0.161,21,109.6763,24.06,25.05,15.48,0,111.1,13.15,24.90,50.1
"2009-08-28 01:04:30",1189858,9.93,87.7,0.542,0.154,21.03,109.6763,24.06,25.04,15.24,0,111,13.15,24.90,49.7
"2009-08-28 01:05:00",1189859,9.87,87.6,0.477,0.113,21.04,109.6763,24.06,25.05,15.27,0,111,13.15,24.90,49.6
"2009-08-28 01:05:30",1189860,10.2,88,0.553,0.089,21.02,109.6763,24.06,25.03,15.45,0,111,13.15,24.90,50.0
"2009-08-28 01:06:00",1189861,10.33,87.3,0.339,0.107,21.07,109.6763,24.06,25.02,15.31,0,111,13.15,24.90,49.3
"2009-08-28 01:06:30",1189862,10.31,87.1,0.401,0.134,21.08,109.6763,24.06,25.03,15.22,0,111,13.15,24.90,49.1
"2009-08-28 01:07:00",1189863,10.2,86.8,0.355,0.084,21.09,109.6763,24.06,25.02,15.2,0,111,13.15,24.90,48.8
"2009-08-28 01:07:30",1189864,10.23,87.6,0.239,0.172,21.06,109.6763,24.06,25.03,15.39,0,111,13.15,24.90,49.6
"2009-08-28 01:08:00",1189865,10.09,87.7,0.354,0.081,21.08,109.6763,24.06,25.01,15.38,0,111,13.15,24.90,49.7
"2009-08-28 01:08:30",1189866,10.03,87.6,0.566,0.07,21.11,109.6763,24.06,25.02,15.31,0,111,13.15,24.90,49.6
"2009-08-28 01:09:00",1189867,9.85,87.1,0.442,0.075,21.11,109.6763,24.06,25.01,15.37,0,111,13.15,24.90,49.1
"2009-08-28 01:09:30",1189868,9.76,87,0.424,0.092,21.11,109.676,24.06,25.02,15.49,0,111,13.15,24.90,49.0
"2009-08-28 01:10:00",1189869,9.63,87,0.481,0.062,21.08,109.6758,24.06,25.02,15.65,0,111,13.15,24.90,49.0
"2009-08-28 01:10:30",1189870,9.58,87.3,0.922,0.155,21.11,109.6746,24.06,25,15.7,0,111,13.15,24.89,49.3
"2009-08-28 01:11:00",1189871,9.99,87.8,0.373,0.16,21.12,109.6744,24.06,25,15.73,0,111,13.15,24.89,49.8
"2009-08-28 01:11:30",1189872,9.95,86.9,0.757,0.094,21.11,109.6679,24.04,25.01,15.73,0,111,13.15,24.88,48.9
"2009-08-28 01:12:00",1189873,9.78,87.2,0.468,0.176,21.11,109.662,24.03,25,15.82,0,111,13.15,24.86,49.2
"2009-08-28 01:12:30",1189874,10.05,88,1.271,0.136,21.04,109.6544,24.01,25,16.06,0,111,13.15,24.84,50.0
"2009-08-28 01:13:00",1189875,9.71,88.5,0.858,0.129,21.1,109.6513,24,24.99,16.21,0,111,13.15,24.83,50.5
"2009-08-28 01:13:30",1189876,9.63,87.4,1.169,0.176,21.1,109.6471,23.99,24.98,16.22,0,111,13.15,24.82,49.4
"2009-08-28 01:14:00",1189877,9.58,87.4,0.497,0.214,21.12,109.6429,23.98,24.98,16.25,0,111,13.16,24.81,49.4
"2009-08-28 01:14:30",1189878,9.87,87.3,0.408,0.159,21.15,109.6426,23.98,24.97,16.28,0,111,13.16,24.81,49.3
"2009-08-28 01:15:00",1189879,9.69,88.3,0.575,0.102,21.11,109.6426,23.98,24.98,16.2,0,111,13.16,24.81,50.3
"2009-08-28 01:15:30",1189880,9.68,87.6,0.352,0.217,21.14,109.6426,23.98,24.96,16.2,0,111,13.15,24.81,49.6
"2009-08-28 01:16:00",1189881,9.51,87.5,0.463,0.086,21.15,109.6426,23.98,24.97,16.13,0,111,13.16,24.81,49.5
"2009-08-28 01:16:30",1189882,9.57,87.1,0.326,0.07,21.15,109.6426,23.98,24.96,16.09,0,111,13.16,24.81,49.1
"2009-08-28 01:17:00",1189883,9.54,86.4,0.993,0.093,21.23,109.6412,23.97,24.96,16,0,111,13.16,24.81,48.4
"2009-08-28 01:17:30",1189884,9.18,88.7,2.179,0.431,21.04,109.6387,23.97,24.95,16.38,0,111,13.16,24.80,50.7
"2009-08-28 01:18:00",1189885,8.85,87.1,1.113,0.211,21.19,109.6336,23.95,24.93,16.29,0,111,13.16,24.79,49.1
"2009-08-28 01:18:30",1189886,9.1,88.3,1.198,0.249,21.17,109.6289,23.94,24.92,16.13,0,111,13.16,24.78,50.3
"2009-08-28 01:19:00",1189887,8.23,88.8,1.635,0.198,21.11,109.6187,23.92,24.92,16.34,0,111,13.16,24.75,50.8
"2009-08-28 01:19:30",1189888,8.44,87.9,1.094,0.305,21.14,109.6118,23.9,24.92,16.6,0,111,13.16,24.73,49.9
"2009-08-28 01:20:00",1189889,8.91,86.6,1.837,0.141,21.21,109.6092,23.89,24.9,16.26,0,111,13.16,24.73,48.6
"2009-08-28 01:20:30",1189890,8.39,88.9,0.943,0.209,21.12,109.6089,23.89,24.92,16.47,0,111,13.16,24.73,50.9
"2009-08-28 01:21:00",1189891,8.15,87.6,2.066,0.228,21.19,109.6101,23.89,24.91,16.58,0,111,13.16,24.73,49.6
"2009-08-28 01:21:30",1189892,8.15,90.1,1.294,0.116,21.18,109.6098,23.89,24.89,16.62,0,111,13.16,24.73,52.1
"2009-08-28 01:22:00",1189893,8.45,89,1.367,0.371,21.18,109.6104,23.89,24.89,16.66,0,111,13.16,24.73,51.0
"2009-08-28 01:22:30",1189894,8.33,91.1,2.498,0.308,21.2,109.6093,23.89,24.88,16.66,0,111,13.16,24.73,53.1
"2009-08-28 01:23:00",1189895,8.49,89.2,0.86,0.136,21.22,109.6027,23.87,24.87,16.49,0,111,13.16,24.71,51.2
"2009-08-28 01:23:30",1189896,8.77,89.5,1.166,0.17,21.25,109.5915,23.85,24.87,16.34,0,111,13.16,24.68,51.5
"2009-08-28 01:24:00",1189897,8.84,90.3,1.668,0.273,21.25,109.5822,23.82,24.88,16.23,0,111,13.16,24.66,52.3
"2009-08-28 01:24:30",1189898,8.54,89,1.131,0.291,21.28,109.5795,23.81,24.85,16.1,0,111,13.15,24.65,51.0
"2009-08-28 01:25:00",1189899,8.05,90.1,0.641,0.192,21.25,109.5829,23.82,24.86,16.29,0,111,13.15,24.66,52.1
"2009-08-28 01:25:30",1189900,8.26,89.9,0.693,0.135,21.29,109.5795,23.81,24.83,16.28,0,111,13.15,24.65,51.9
"2009-08-28 01:26:00",1189901,8.11,90.5,2.079,0.182,21.28,109.5832,23.82,24.83,16.39,0,111,13.15,24.66,52.5
"2009-08-28 01:26:30",1189902,8.15,91.7,2.158,0.193,21.3,109.5875,23.83,24.83,16.49,0,111,13.15,24.67,53.7
"2009-08-28 01:27:00",1189903,8.23,91.3,1.692,0.229,21.29,109.5881,23.84,24.82,16.48,0,111,13.15,24.67,53.3
"2009-08-28 01:27:30",1189904,8.02,89.6,2.93,0.2,21.3,109.5931,23.85,24.82,16.63,0,111,13.15,24.68,51.6
"2009-08-28 01:28:00",1189905,8.55,92.3,1.312,0.133,21.32,109.5969,23.86,24.8,16.61,0,111,13.15,24.69,54.3
"2009-08-28 01:28:30",1189906,8.3,90.3,1.851,0.209,21.35,109.5921,23.85,24.8,16.62,0,111,13.16,24.68,52.3
"2009-08-28 01:29:00",1189907,8.57,90.5,1.066,0.198,21.33,109.5861,23.83,24.79,16.61,0,111,13.16,24.67,52.5
"2009-08-28 01:29:30",1189908,8.37,91.7,1.204,0.188,21.33,109.5836,23.82,24.79,16.78,0,111,13.16,24.66,53.7
"2009-08-28 01:30:00",1189909,8.23,90.4,1.574,0.372,21.37,109.5705,23.79,24.8,16.75,0,111,13.16,24.63,52.4
"2009-08-28 01:30:30",1189910,8.62,87.8,0.602,0.138,21.39,109.5692,23.79,24.78,16.64,0,111,13.16,24.62,49.8
"2009-08-28 01:31:00",1189911,8.42,87.2,0.848,0.165,21.4,109.5695,23.79,24.77,16.46,0,111,13.16,24.62,49.2
"2009-08-28 01:31:30",1189912,8.04,91.9,1.621,0.226,21.34,109.5698,23.79,24.78,16.85,0,111,13.16,24.62,53.9
"2009-08-28 01:32:00",1189913,8.22,90.9,1.14,0.11,21.39,109.5698,23.79,24.76,17,0,111,13.16,24.62,52.9
"2009-08-28 01:32:30",1189914,8.48,88.6,0.813,0.111,21.41,109.5704,23.79,24.75,16.75,0,111,13.16,24.63,50.6
"2009-08-28 01:33:00",1189915,8.29,89.6,1.643,0.249,21.37,109.5693,23.79,24.74,16.77,0,111,13.16,24.62,51.6
"2009-08-28 01:33:30",1189916,8.14,93,1.232,0.195,21.39,109.5642,23.78,24.74,16.98,0,111,13.16,24.61,55.0
"2009-08-28 01:34:00",1189917,7.909,91.9,1.498,0.229,21.37,109.554,23.75,24.72,17.02,0,111,13.17,24.58,53.9
"2009-08-28 01:34:30",1189918,7.989,92.1,1.022,0.219,21.35,109.5497,23.74,24.72,17.04,0,111,13.17,24.57,54.1
"2009-08-28 01:35:00",1189919,8.01,92.6,1.794,0.139,21.36,109.5448,23.73,24.72,17.09,0,111,13.17,24.56,54.6
"2009-08-28 01:35:30",1189920,7.978,93.7,2.128,0.082,21.33,109.5441,23.72,24.71,17.08,0,111,13.17,24.56,55.7
"2009-08-28 01:36:00",1189921,7.835,90.3,1.484,0.216,21.33,109.5447,23.72,24.72,17.2,0,111,13.17,24.56,52.3
"2009-08-28 01:36:30",1189922,8.09,92.2,1.309,0.23,21.36,109.5447,23.72,24.71,17.15,0,111,13.17,24.56,54.2
"2009-08-28 01:37:00",1189923,7.79,93.7,0.478,0.067,21.38,109.5444,23.72,24.7,17.18,0,111,13.17,24.56,55.7
"2009-08-28 01:37:30",1189924,8.02,92.7,1.904,0.27,21.4,109.5447,23.72,24.69,17.21,0,111,13.17,24.56,54.7
"2009-08-28 01:38:00",1189925,7.871,93,1.052,0.139,21.41,109.5438,23.72,24.69,17.29,0,111,13.17,24.56,55.0
"2009-08-28 01:38:30",1189926,7.65,93,0.664,0.135,21.4,109.5374,23.71,24.67,17.28,0,111,13.17,24.54,55.0
"2009-08-28 01:39:00",1189927,7.911,89.7,1.985,0.234,21.38,109.5236,23.67,24.65,17.23,0,111,13.17,24.51,51.7
"2009-08-28 01:39:30",1189928,8.03,90.4,2.232,0.12,21.39,109.5183,23.66,24.66,17.25,0,111,13.17,24.49,52.4
"2009-08-28 01:40:00",1189929,7.797,93,0.574,0.069,21.38,109.5138,23.65,24.66,17.41,0,111,13.17,24.48,55.0
"2009-08-28 01:40:30",1189930,7.896,92.5,0.491,0.113,21.38,109.511,23.64,24.65,17.43,0,111,13.17,24.47,54.5
"2009-08-28 01:41:00",1189931,7.75,93.5,1.036,0.138,21.4,109.511,23.64,24.64,17.49,0,111,13.17,24.47,55.5
"2009-08-28 01:41:30",1189932,7.731,93.1,0.596,0.106,21.45,109.511,23.64,24.64,17.39,0,111,13.17,24.47,55.1
"2009-08-28 01:42:00",1189933,7.667,92.2,0.515,0.108,21.38,109.511,23.64,24.62,17.27,0,111,13.17,24.47,54.2
"2009-08-28 01:42:30",1189934,7.559,91.3,1.403,0.169,21.35,109.511,23.64,24.62,17.5,0,111,13.17,24.47,53.3
"2009-08-28 01:43:00",1189935,7.809,90.2,1.578,0.212,21.4,109.511,23.64,24.62,17.48,0,111,13.17,24.47,52.2
"2009-08-28 01:43:30",1189936,7.412,93.2,1.049,0.174,21.43,109.5104,23.64,24.61,17.36,0,111,13.17,24.47,55.2
"2009-08-28 01:44:00",1189937,7.646,93.4,1.119,0.275,21.37,109.509,23.63,24.61,17.28,0,111,13.17,24.47,55.4
"2009-08-28 01:44:30",1189938,7.818,92.2,1.156,0.19,21.44,109.5008,23.61,24.61,17.31,0,111,13.17,24.45,54.2
"2009-08-28 01:45:00",1189939,7.399,93.5,1.281,0.124,21.43,109.4935,23.59,24.58,17.29,0,111,13.17,24.43,55.5
"2009-08-28 01:45:30",1189940,7.427,91.7,1.599,0.116,21.42,109.4868,23.58,24.6,17.35,0,111,13.17,24.41,53.7
"2009-08-28 01:46:00",1189941,7.264,93.7,0.382,0.104,21.42,109.484,23.57,24.6,17.3,0,111,13.17,24.40,55.7
"2009-08-28 01:46:30",1189942,7.74,92.2,1.853,0.156,21.42,109.4814,23.56,24.59,17.32,0,111,13.17,24.40,54.2
"2009-08-28 01:47:00",1189943,7.821,93.9,2.77,0.319,21.49,109.4789,23.56,24.6,17.31,0,111,13.18,24.39,55.9
"2009-08-28 01:47:30",1189944,7.6,89.5,1.848,0.201,21.4,109.4775,23.55,24.58,17.36,0,111,13.18,24.39,51.5
"2009-08-28 01:48:00",1189945,7.384,90.5,1.58,0.163,21.39,109.4775,23.55,24.58,17.41,0,111,13.18,24.39,52.5
"2009-08-28 01:48:30",1189946,7.276,91.6,1.006,0.146,21.42,109.4779,23.55,24.59,17.42,0,111,13.18,24.39,53.6
"2009-08-28 01:49:00",1189947,7.059,92,1.966,0.18,21.4,109.4775,23.55,24.58,17.37,0,111,13.18,24.39,54.0
"2009-08-28 01:49:30",1189948,7.555,92.7,1.204,0.294,21.39,109.4775,23.55,24.58,17.37,0,110.9,13.18,24.39,54.7